Total_Precipitation_Accumulation
0.00 0.00 0.00 0.00 0.00 0.00 0.00 0.00 0.00 0.00 0.00 0.00 0.00 0.00 0.00 0.00 0.00 0.00 0.00 0.00 0.00 0.00 0.00 0.00 0.00 0.00 0.00 0.00 0.00 0.00 0.00 0.00 0.00 0.00 0.00 0.00 0.00 0.00 0.00 0.00 0.00 0.00 0.00 0.00 0.00
0.00 0.00 0.00 0.00 0.00 0.00 0.00 0.00 0.00 0.00 0.00 0.00 0.00 0.00 0.00 0.00 0.00 0.00 0.00 0.00 0.00 0.00 0.00 0.00 0.00 0.00 0.00 0.00 0.00 0.00 0.00 0.00 0.00 0.00 0.00 0.00 0.00 0.00 0.00 0.00 0.00 0.00 0.00 0.00 0.00
0.00 0.00 0.00 0.00 0.00 0.00 0.00 0.00 0.00 0.00 0.00 0.00 0.00 0.00 0.00 0.00 0.00 0.00 0.00 0.00 0.00 0.00 0.00 0.00 0.00 0.00 0.00 0.00 0.00 0.00 0.00 0.00 0.00 0.00 0.00 0.00 0.00 0.00 0.00 0.00 0.00 0.00 0.00 0.00 0.00
0.00 0.00 0.00 0.00 0.00 0.00 0.00 0.00 0.00 0.00 0.00 0.00 0.00 0.00 0.00 0.00 0.00 0.00 0.00 0.00 0.00 0.00 0.00 0.00 0.00 0.00 0.00 0.00 0.00 0.00 0.00 0.00 0.00 0.00 0.00 0.00 0.00 0.00 0.00 0.00 0.00 0.00 0.00 0.00 0.00
0.00 0.00 0.00 0.00 0.00 0.00 0.00 0.00 0.00 0.00 0.00 0.00 0.00 0.00 0.00 0.00 0.00 0.00 0.00 0.00 0.00 0.00 0.00 0.00 0.00 0.00 0.00 0.00 0.00 0.00 0.00 0.00 0.00 0.00 0.00 0.00 0.00 0.00 0.00 0.00 0.00 0.00 0.00 0.00 0.00
0.01 0.00 0.00 0.00 0.00 0.00 0.00 0.00 0.00 0.00 0.00 0.00 0.00 0.00 0.00 0.00 0.00 0.00 0.00 0.00 0.00 0.00 0.00 0.00 0.00 0.00 0.00 0.00 0.00 0.00 0.00 0.00 0.00 0.00 0.00 0.00 0.00 0.00 0.00 0.00 0.00 0.00 0.00 0.00 0.00
0.01 0.00 0.00 0.00 0.00 0.00 0.00 0.00 0.00 0.00 0.00 0.00 0.00 0.00 0.00 0.00 0.00 0.00 0.00 0.00 0.00 0.00 0.00 0.00 0.00 0.00 0.00 0.00 0.00 0.00 0.00 0.00 0.00 0.00 0.00 0.00 0.00 0.00 0.00 0.00 0.00 0.00 0.00 0.00 0.00
0.02 0.00 0.00 0.00 0.00 0.00 0.00 0.00 0.00 0.00 0.00 0.00 0.00 0.00 0.00 0.00 0.00 0.00 0.00 0.00 0.00 0.00 0.00 0.00 0.00 0.00 0.00 0.00 0.00 0.00 0.00 0.00 0.00 0.00 0.00 0.00 0.00 0.00 0.00 0.00 0.00 0.00 0.00 0.00 0.00
0.06 0.03 0.01 0.00 0.00 0.00 0.00 0.00 0.00 0.00 0.00 0.00 0.00 0.00 0.00 0.00 0.00 0.00 0.00 0.00 0.00 0.00 0.00 0.00 0.00 0.00 0.00 0.00 0.00 0.00 0.00 0.00 0.00 0.00 0.00 0.00 0.00 0.00 0.00 0.00 0.00 0.00 0.00 0.00 0.00
0.03 0.04 0.03 0.01 0.00 0.00 0.00 0.00 0.00 0.00 0.00 0.00 0.00 0.00 0.00 0.00 0.00 0.00 0.00 0.00 0.00 0.00 0.00 0.00 0.00 0.00 0.00 0.00 0.00 0.00 0.00 0.00 0.00 0.00 0.00 0.00 0.00 0.00 0.00 0.00 0.00 0.00 0.00 0.00 0.00
0.05 0.04 0.04 0.01 0.00 0.00 0.00 0.00 0.00 0.00 0.00 0.00 0.00 0.00 0.00 0.00 0.00 0.00 0.00 0.00 0.00 0.00 0.00 0.00 0.00 0.00 0.00 0.00 0.00 0.00 0.00 0.00 0.00 0.00 0.00 0.00 0.00 0.00 0.00 0.00 0.00 0.00 0.00 0.00 0.00
0.06 0.04 0.04 0.03 0.01 0.00 0.00 0.00 0.00 0.00 0.00 0.00 0.00 0.00 0.00 0.00 0.00 0.00 0.00 0.00 0.01 0.02 0.01 0.02 0.01 0.00 0.00 0.00 0.00 0.00 0.00 0.00 0.00 0.00 0.00 0.00 0.00 0.00 0.00 0.00 0.00 0.00 0.00 0.00 0.00
0.05 0.06 0.06 0.03 0.01 0.01 0.00 0.00 0.00 0.00 0.00 0.00 0.00 0.00 0.00 0.00 0.00 0.00 0.00 0.00 0.01 0.08 0.04 0.03 0.02 0.00 0.00 0.00 0.00 0.00 0.00 0.00 0.00 0.00 0.02 0.02 0.01 0.00 0.00 0.00 0.00 0.00 0.00 0.00 0.00
0.07 0.05 0.05 0.04 0.04 0.02 0.02 0.00 0.00 0.00 0.03 0.00 0.00 0.00 0.00 0.00 0.00 0.00 0.00 0.00 0.03 0.06 0.09 0.19 0.04 0.02 0.03 0.02 0.01 0.06 0.00 0.00 0.02 0.06 0.08 0.04 0.05 0.00 0.00 0.00 0.00 0.00 0.00 0.00 0.00
0.10 0.07 0.03 0.01 0.00 0.01 0.02 0.01 0.01 0.01 0.09 0.01 0.00 0.00 0.00 0.00 0.01 0.04 0.00 0.00 0.01 0.05 0.19 0.29 0.21 0.24 0.21 0.05 0.02 0.05 0.00 0.00 0.01 0.02 0.06 0.05 0.10 0.01 0.00 0.01 0.00 0.00 0.01 0.00 0.00
0.08 0.06 0.04 0.04 0.02 0.00 0.00 0.01 0.02 0.06 0.06 0.00 0.00 0.00 0.00 0.01 0.00 0.01 0.01 0.00 0.00 0.04 0.04 0.09 0.02 0.05 0.05 0.00 0.01 0.02 0.02 0.02 0.05 0.09 0.19 0.03 0.05 0.02 0.01 0.10 0.08 0.12 0.08 0.04 0.03
0.05 0.04 0.02 0.03 0.07 0.03 0.01 0.03 0.06 0.05 0.01 0.00 0.00 0.00 0.00 0.01 0.06 0.04 0.02 0.00 0.00 0.03 0.05 0.05 0.05 0.04 0.02 0.12 0.05 0.05 0.04 0.12 0.14 0.14 0.09 0.02 0.03 0.01 0.17 0.24 0.35 0.32 0.30 0.29 0.10
0.08 0.03 0.02 0.03 0.03 0.04 0.04 0.10 0.14 0.03 0.00 0.00 0.00 0.00 0.00 0.01 0.02 0.02 0.02 0.02 0.02 0.02 0.04 0.05 0.18 0.06 0.04 0.27 0.11 0.04 0.04 0.06 0.19 0.10 0.09 0.07 0.07 0.12 0.40 0.31 0.65 0.33 0.59 0.42 0.19
0.09 0.04 0.02 0.03 0.04 0.06 0.10 0.15 0.06 0.01 0.00 0.00 0.00 0.00 0.00 0.00 0.06 0.17 0.35 0.06 0.06 0.05 0.17 0.14 0.16 0.06 0.03 0.05 0.07 0.07 0.07 0.04 0.16 0.17 0.21 0.08 0.08 0.26 0.27 0.14 0.61 0.41 0.52 0.77 0.28
0.06 0.07 0.08 0.04 0.05 0.09 0.14 0.08 0.02 0.00 0.00 0.00 0.00 0.00 0.00 0.00 0.03 0.16 0.19 0.07 0.01 0.00 0.06 0.14 0.16 0.07 0.12 0.08 0.05 0.04 0.03 0.10 0.20 0.42 0.35 0.17 0.19 0.38 0.30 0.17 0.40 0.93 0.64 0.84 0.48
0.09 0.18 0.19 0.11 0.09 0.18 0.13 0.02 0.00 0.00 0.00 0.00 0.00 0.00 0.00 0.00 0.00 0.02 0.08 0.07 0.00 0.00 0.02 0.06 0.19 0.10 0.16 0.26 0.06 0.04 0.06 0.10 0.19 0.21 0.36 0.49 0.60 0.84 0.54 0.36 0.36 0.53 1.10 0.70 0.75
0.29 0.24 0.19 0.14 0.18 0.08 0.02 0.00 0.00 0.00 0.00 0.00 0.00 0.00 0.00 0.00 0.01 0.01 0.01 0.02 0.01 0.02 0.01 0.03 0.06 0.08 0.02 0.08 0.03 0.05 0.08 0.09 0.28 0.26 0.32 0.57 1.40 1.08 0.69 0.53 0.51 0.54 0.99 1.09 0.83
0.29 0.39 0.16 0.16 0.12 0.04 0.01 0.01 0.00 0.00 0.00 0.00 0.00 0.00 0.00 0.00 0.02 0.02 0.00 0.00 0.00 0.01 0.02 0.02 0.14 0.36 0.23 0.06 0.03 0.08 0.06 0.13 0.26 0.21 0.37 0.74 1.47 1.55 1.05 0.79 0.71 0.96 0.73 0.74 0.90
0.16 0.43 0.32 0.12 0.06 0.01 0.02 0.01 0.00 0.00 0.00 0.00 0.00 0.01 0.00 0.00 0.00 0.03 0.00 0.00 0.00 0.00 0.01 0.03 0.09 0.35 0.62 0.47 0.44 0.17 0.04 0.05 0.10 0.20 0.42 0.63 1.60 1.43 1.81 1.58 1.26 0.93 1.02 0.87 0.81
0.09 0.11 0.10 0.08 0.04 0.01 0.01 0.01 0.01 0.00 0.00 0.00 0.00 0.00 0.00 0.00 0.00 0.01 0.00 0.00 0.00 0.00 0.00 0.01 0.04 0.10 0.09 0.15 0.62 0.46 0.13 0.13 0.17 0.10 0.20 0.59 0.61 0.94 1.64 1.86 1.73 1.68 1.16 0.88 0.73
0.03 0.03 0.01 0.00 0.01 0.01 0.00 0.00 0.00 0.00 0.00 0.00 0.00 0.00 0.00 0.00 0.01 0.00 0.00 0.00 0.00 0.00 0.00 0.00 0.02 0.01 0.02 0.07 0.40 0.40 0.14 0.09 0.13 0.15 0.25 0.42 0.41 0.99 0.74 0.49 0.42 0.53 0.79 0.58 0.56
0.01 0.00 0.00 0.01 0.01 0.01 0.00 0.00 0.00 0.00 0.00 0.00 0.00 0.00 0.00 0.00 0.00 0.00 0.00 0.00 0.00 0.00 0.00 0.01 0.01 0.01 0.04 0.05 0.36 0.71 0.74 0.50 0.36 0.44 0.30 0.36 0.54 0.76 0.35 0.08 0.03 0.02 0.06 0.15 0.20